Location: Heisede
(52.2582°N, 9.8523°E)
Time: 22:53:58
(UTC+00:00)

Cosmos 909 Rocket - Pass Details

Date: 13 January 2026
Orbit: 992 x 2087 km, 65.9° (Epoch: 9 February)

Event Time Altitude Azimuth Distance (km) Brightness Sun altitude
Exits shadow 03:38:02 57° 138° (SE) 1,224 4.5 -33.7°
Drops below altitude 10° 03:43:30 10° 141° (SE) 3,041 6.9 -32.9°
Sets 03:46:23 0° 141° (SE) 4,123 7.7 -32.5°
